Hourly Data Report for April 26, 2021

TORONTO CITY
ONTARIO
Current Station Operator: ECCC - MSC

43°40'00.000" N
79°24'00.000" W
112.50 m
6158355
71508
XTO

Download Data

Hourly Data (April 2021)
Hourly Data Report for April 26, 2021
TIME
LST
Temp Definition
°C
Dew Point Definition
°C
Rel Hum Definition
%
Precip. Amount Definition
mm

Wind Dir Definition
10's deg

Wind Spd Definition
km/h
Visibility Definition
km
Stn Press Definition
kPa
Hmdx Definition


Wind Chill Definition


Weather Definition


00:00 1.9 -6.6 53 0.0       100.61     LegendNANA
01:00 2.2 -5.9 55 0.0       100.66     LegendNANA
02:00 1.5 -6.7 54 0.0       100.68     LegendNANA
03:00 1.1 -7.2 54 0.0       100.76     LegendNANA
04:00 0.8 -7.2 55 0.0       100.80     LegendNANA
05:00 0.4 -7.6 55 0.0       100.85     LegendNANA
06:00 0.3 -7.9 54 0.0       100.91     LegendNANA
07:00 1.5 -7.9 50 0.0       101.00     LegendNANA
08:00 2.9 -7.4 46 0.0       101.04     LegendNANA
09:00 3.5 -8.3 42 0.0       101.06     LegendNANA
10:00 5.3 -7.5 39 0.0       101.04     LegendNANA
11:00 7.7 -6.8 35 0.0       101.03     LegendNANA
12:00 6.0 -6.1 42 0.0       101.04     LegendNANA
13:00 6.8 -4.5 44 0.0       100.94     LegendNANA
14:00 6.5 -4.3 46 0.0       100.87     LegendNANA
15:00 7.7 -3.7 44 0.0       100.80     LegendNANA
16:00 7.9 -5.6 38 0.0       100.74     LegendNANA
17:00 7.5 -6.3 37 0.0       100.73     LegendNANA
18:00 7.0 -9.3 30 0.0       100.65     LegendNANA
19:00 7.3 -7.5 34 0.0       100.58     LegendNANA
20:00 7.2 -10.5 27 0.0       100.58     LegendNANA
21:00 7.7 -10.5 26 0.0       100.51     LegendNANA
22:00 7.9 -10.5 26 0.0       100.56     LegendNANA
23:00 5.7 -2.6 55 0.9       100.64     LegendNANA

Notes on Data Quality.

Legend

  • E = Estimated
  • M = Missing
  • NA = Not Available*
  • [empty] = Indicates an unobserved value
Date modified: